Home   Weather   Gatlinburg   Past weeks
Flag for USA

Past Weather in Gatlinburg, Tennessee, USA — Yesterday and Last 2 Weeks

Currently: 49 °F. Heavy rain. Fog. (Weather station: McGhee Tyson Airport, USA). See more current weather

Past Weather in Gatlinburg — Graph

°F

Gatlinburg Temperature Yesterday

Maximum temperature yesterday: 52 °F (at 1:53 pm)
Minimum temperature yesterday: 43 °F (at 12:53 am)
Average temperature yesterday: 47 °F

High & Low Weather Summary for the Past Weeks

 TemperatureHumidityPressure
High66 °F (Jan 19, 5:53 am)100% (Jan 18, 2:53 am)30.41 "Hg (Jan 18, 2:53 am)
Low25 °F (Jan 24, 4:53 am)33% (Jan 19, 3:53 pm)29.60 "Hg (Jan 25, 2:53 pm)
Average44 °F77%30.05 "Hg
* Reported Jan 16 8:53 am — Jan 31 8:38 am, Gatlinburg. Weather by CustomWeather, © 2023

Note: Actual official high and low records may vary slightly from our data, if they occured in-between our weather recording intervals... More about our weather records

Gatlinburg Weather History for the Previous 24 Hours

Scroll right to see more
 ConditionsComfort  
Time TempWeatherWind HumidityBarometerVisibility
8:38 am
Tue, Jan 31
50 °FLight rain. Fog.5 mph96%30.16 "Hg2 mi
8:18 am49 °FRain. Fog.3 mph100%30.15 "Hg1 mi
8:06 am49 °FRain. Fog.3 mph100%30.15 "Hg1 mi
6:53 am49 °FFog.3 mph100%30.12 "Hg0 mi
5:53 am49 °FFog.5 mph100%30.12 "Hg0 mi
4:53 am49 °FFog.3 mph100%30.12 "Hg0 mi
4:42 am49 °FFog.3 mph100%30.13 "Hg0 mi
4:23 am49 °FFog.5 mph100%30.13 "Hg0 mi
3:53 am50 °FFog.3 mph96%30.13 "Hg0 mi
2:53 am50 °FFog.5 mph100%30.15 "Hg0 mi
1:53 am50 °FFog.5 mph100%30.18 "Hg0 mi
12:53 am50 °FFog.No wind100%30.19 "Hg0 mi
11:53 pm
Mon, Jan 30
50 °FFog.No wind96%30.19 "Hg0 mi
11:33 pm50 °FFog.No wind100%30.19 "Hg0 mi
10:53 pm50 °FFog.7 mph100%30.19 "Hg0 mi
9:53 pm50 °FFog.3 mph96%30.17 "Hg0 mi
9:11 pm50 °FFog.No wind96%30.19 "Hg0 mi
9:01 pm50 °FFog.No wind96%30.19 "Hg1 mi
8:37 pm50 °FFog.No wind96%30.19 "Hg1 mi
7:53 pm50 °FLow clouds.No wind96%30.19 "Hg7 mi
6:05 pm50 °FPartly cloudy.3 mph96%30.17 "Hg10 mi
4:53 pm52 °FLow clouds.No wind89%30.17 "Hg10 mi
4:35 pm52 °FLow clouds.No wind89%30.17 "Hg10 mi
3:53 pm51 °FFog.7 mph96%30.17 "Hg5 mi
3:21 pm51 °FFog.7 mph96%30.16 "Hg3 mi
3:10 pm51 °FFog.7 mph96%30.15 "Hg3 mi
1:53 pm52 °FLow clouds.No wind93%30.16 "Hg8 mi
12:53 pm50 °FFog.3 mph96%30.19 "Hg4 mi
12:28 pm49 °FFog.No wind97%30.20 "Hg2 mi
11:53 am48 °FLight rain. Fog.No wind96%30.22 "Hg1 mi
11:11 am47 °FLight rain. Fog.No wind97%30.23 "Hg1 mi
10:53 am46 °FFog.3 mph100%30.24 "Hg1 mi
9:53 am45 °FLight rain. Fog.3 mph100%30.23 "Hg1 mi
9:23 am45 °FLight rain. Fog.No wind97%30.22 "Hg1 mi
Weather by CustomWeather, © 2023

See weather overview